Regional Weather Roundup
Issued by NWS

Home | Current Version | Previous Version | Graphics & Text | Print | Product List | Glossary On
Versions: 1 2 3 4 5 6 7 8 9 10 11 12 13 14 15 16 17 18 19 20 21 22 23 24 25 26 27 28 29 30 31 32 33 34 35 36 37 38 39 40 41 42 43 44 45 46 47 48 49 50
212
ASUS45 KSLC 130110
RWRUT

UTAH REGIONAL WEATHER ROUNDUP
NATIONAL WEATHER SERVICE SALT LAKE CITY UT
600 PM MST FRI FEB 12 2016

UTZ001>011-023>025-130200-

NORTHERN UTAH

CITY           SKY/WX    TMP DP  RH WIND       PRES   REMARKS
BRIGHAM CITY   CLOUDY    27  24  89 CALM      30.37F
HILL AFB       FOG       28  27  95 NW7       30.33F VSB 1   WCI  21
LOGAN          CLOUDY    24  22  91 SE5       30.35F FOG     WCI  18
OGDEN          CLOUDY    27  26  96 NW6       30.34F FOG     WCI  20
PROVO AIRPORT  FOG       19  16  86 CALM      30.33  VSB 1/8
SALT LAKE CITY CLOUDY    30  27  88 N10       30.35S FOG     WCI  21
VERNAL         CLOUDY    27  20  75 NE3       30.34R HAZE
WENDOVER       CLOUDY    30  25  80 SE7       30.35F WCI  23
HEBER CITY     MOCLDY    28  21  74 CALM      30.28S
WEST JORDAN    CLOUDY    30  28  93 NW12      30.34R WCI  21

$$

UTZ012>022-026-027-130200-

SOUTHERN/CENTRAL UTAH

CITY           SKY/WX    TMP DP  RH WIND       PRES   REMARKS
BLANDING       PTCLDY    45  26  45 CALM      30.40F
BRYCE CANYON   MOCLDY    35  24  64 CALM      30.38R
CEDAR CITY     MOCLDY    40  28  62 SW3       30.27S
DELTA          MOCLDY    22  21  96 CALM      30.33S
HANKSVILLE     MOCLDY    46  32  57 CALM      30.35S
MILFORD        MOCLDY    19  15  84 N8        30.30S WCI   9
MOAB/CYNLANDS  MOCLDY    41  32  70 NW5       30.32S
PRICE          MOCLDY    39  25  57 N3        30.34S
ST GEORGE      MOCLDY    66  28  24 CALM      30.19S
KANAB          PTCLDY    55  32  41 E12       30.29R

$$

REGIONAL REPORTS     COLORADO/ARIZONA

CITY           SKY/WX    TMP DP  RH WIND       PRES   REMARKS
CRAIG, CO      CLOUDY    25  19  78 SW5       30.33S WCI  19
GRAND JUNCTION CLOUDY    40  30  67 N6        30.33S
RIFLE          CLOUDY    39  22  50 CALM      30.33S
MONTROSE       CLOUDY    44  28  53 E5        30.35R
CORTEZ         CLEAR     44  26  49 CALM      30.34R
PAGE, AZ       CLEAR     54  30  40 CALM      30.28S
GRAND CANYON   CLEAR     54  25  32 NE6       30.34R
KINGMAN        CLEAR     68  22  17 N7        30.18S
FLAGSTAFF      PTCLDY    54  20  26 E5        30.35R

$$

REGIONAL REPORTS    NEVADA/IDAHO/WYOMING

CITY           SKY/WX    TMP DP  RH WIND       PRES   REMARKS
LAS VEGAS, NV  PTCLDY    71  24  17 E3        30.11S
ELY            MOCLDY    36  27  69 S9        30.28F WCI  29
ELKO           MOCLDY    33  24  69 E7        30.30S WCI  27
POCATELLO, ID  CLOUDY    33  27  78 NW6       30.27S WCI  28
BURLEY         MOCLDY    38  32  79 N3        30.22S
EVANSTON, WY   CLOUDY    44  15  31 SW6       30.30F
ROCK SPRINGS   CLOUDY    40  21  46 SW13      30.28S WCI  32
KEMMERER       CLOUDY    36  16  44 CALM      30.31S

$$




USA.gov is the U.S. government's official web portal to all federal, state and local government web resources and services.